A/2019 U6

Japanese version
Home page
Updated on January 7, 2020

---------------------------------------------------------------------

* Profile

Discovery Date October 31, 2019
Magnitude 20.5 mag
Discoverer Mt. Lemmon Survey

* Orbital Elements

Epoch 2020 May 31.0 TT = JDT 2459000.5
T 2020 June 18.82556 TT                                 Williams
q   0.9142787            (2000.0)            P               Q
z  +0.0023073      Peri.  329.65968     -0.68858420     +0.06104198
 +/-0.0000069      Node   235.70587     -0.35183765     -0.89942921
e   0.9978905      Incl.   61.00148     -0.63408365     +0.43278283
H   14.5
From 46 observations 2018 Nov. 6-2019 Nov. 20, mean residual 0".3.

* Finding Charts

* Magnitudes Graph

        H = 14.5  G = 0.15                [    ,-250]  (             - 2019 Oct. 12)
        m1 = 14.5 + 5 log d + 10.0 log r  [-250,    ]  (2019 Oct. 12 -             )

---------------------------------------------------------------------

The orbital elements are published on M.P.E.C. 2019-X94.
The charts are made with StellaNavigator Ver.10 (AstroArts).
The magnitudes graphs are made with Comet for Windows.

---------------------------------------------------------------------

Copyright(C) Seiichi Yoshida (comet@aerith.net). All rights reserved.